ARIANE 5 R/B, 41593

Orbit data source: Space-Track

ARIANE 5 R/B, 41593 is space debris in HEO originally from a launch on Sat, 18 Jun 2016 UTC launched from the French Guiana (FRGUI). Debris objects in space refer to the collection of defunct objects orbiting the Earth. Examples of debris include non-operational satellites, rocket bodies, and fragments generated from explosions, collisions, or faulty payload assembly.

Loading next visibility...
Identifier
41593, 2016-039C
Orbit
HEO
Country
Flag of FRFR
Related business
Manufacturer
Airbus Safran
Mission
Spacecraft
Bus & Motor
ESC-A, Unknown motor
Mass
~5,000 kg wet, ~5,000 kg dry
Launch date (UTC)
2016-06-18 (9 years ago)
Launch vehicle
Unknown
Launch site
French Guiana (FRGUI)
Object type
Payload
Rocket body
Debris
Shape & HBR
Cyl + 1 Nozzle, 3.5 m
Radar Cross Section
41.627 m², Large (>1 m²)

Expand to show TLE details & history
Last TLE update: 14 hours ago

TLE from 14 hours ago
0 ARIANE 5 R/B
1 41593U 16039C   25310.68079478  .00011279  00000-0  25264-2 0  9992
2 41593   6.2865  31.7970 7160050 193.4637 125.2324  2.43861492 80219
Epoch: 2025-11-06T16:20Z
TLE epoch observation values (Epoch: 2025-11-06T16:20:20.668Z)
Latitude
-0.00003°
Longitude
100.48764°
Altitude
31,013.095 km
Speed
2.055 km/s
True Right ascension
02h 06m 50s
True Declination
0° 00' 00"
Sunlit
Object was in daylight at epoch
Visualization orbit readout
Latitude
Unknown
Longitude
Unknown
Altitude
Unknown
Speed
Unknown
Apparent Right ascension
Unknown
Apparent Declination
Unknown
Sunlit
N/A
Visualization observer readout
Local Sidereal Time
02:39:39
Azimuth
Unknown
Elevation
Unknown
Doppler factor
Unknown
Orbital elements
Apogee altitude
33,640.296 km
Perigee altitude
244.824 km
Semi-major axis
23,320.697 km
Eccentricity
0.71601
Inclination
6.2865°
RAAN
31.797°
Arg. of periapsis
193.4637°
True anomaly
166.4142°
Mean anomaly
125.2324°
Eccentric anomaly
147.35943°
Mean motion
0.60944 °/min
Orbital period
590.71 mins
BSTAR
0.0025264
Loading maneuver chart data...
Computing Atmospheric mass density...
Loading historical data...
Loading historical data...
Loading historical data...
Loading historical data...
Loading historical data...
Loading historical data...
Loading historical data...
Other satellites on launch #39 in the year 2016 (2016-06-18 UTC)

Documentation

Showing up to 5 results
|